World > North America > United States > Kansas

Alton, Kansas Regional Weather

Lat: 39.47N, Lon: 98.95W
Wx Zone: KSZ018Web Search

If you are on your PC, you can easily pass this page to your phone by scanning the QR Code near the bottom with your camera.

Feedback


°F Click to change Alton hourly weather to Imperial units.Click to change Alton hourly weather to Metric units. °C
Alton Weather Map
UTC Time: 5/11/2021, 07:05
Your Time:

Alton, KS Regional Weather

Expires:202105110800;;932382
ASUS43 KTOP 110659
RWRKS 

WEATHER ROUNDUP FOR KANSAS
NATIONAL WEATHER SERVICE GOODLAND KS
200 AM CDT TUE MAY 11 2021

NOTE:  "FAIR" INDICATES FEW OR NO CLOUDS BELOW 12,000 FEET WITH NO
SIGNIFICANT WEATHER AND/OR OBSTRUCTIONS TO VISIBILITY.


KSZ001>006-013>018-027>032-041>047-110800-
NORTHWEST KANSAS
  
CITY           SKY/WX    TMP DP  RH WIND       PRES   REMARKS
GOODLAND       LGT RAIN  42  39  89 E13       30.24R                  
HAYS           LGT RAIN  48  45  89 E6        30.25S                  
HILL CITY      LGT RAIN  49  45  86 CALM      30.26R                  
RUSSELL        LGT RAIN  48  44  86 NE5       30.23S                  
$$


SKY/WX - Weather  TMP - Temperature  DP - Dew Point  RH - Relative Humidity
WIND - Wind Direction/Speed PRES - Barometric Pressure VSB - Visibility
WCI - Wind Chill Index E13G22 Wind - East Wind 13 mph/Gusts of 22 mph